Simultaneous Nadir Overpasses (SNOs) Predictions

Prediction of SNOs between NOAA-19 and NPP Satellite Orbit:

Table of predicted SNOs for the next 14.0 days since TLE Epoch: 4/2/2013
Index Date (NOAA-19) Time (NOAA-19) Lat,Lon (NOAA-19) SZA (NOAA-19 ) Date (NPP) Time (NPP) Lat,Lon (NPP) SZA (NPP ) Distance(km) Time Diff (sec)
1 04/13/2013 00:39:45 80.91, 117.63 75.50 04/13/2013 00:40:53 80.90, 117.80 75.44 3.15 68
2 04/13/2013 01:30:45 -80.89, -74.75 104.58 04/13/2013 01:31:37 -80.89, -74.59 104.63 2.74 52
3 04/13/2013 02:21:47 80.87, 93.07 75.33 04/13/2013 02:22:21 80.87, 93.13 75.30 1.02 34
4 04/13/2013 03:12:47 -80.86, -99.31 104.74 04/13/2013 03:13:05 -80.85, -99.27 104.76 0.65 18
5 04/13/2013 04:03:49 80.83, 68.51 75.16 04/13/2013 04:03:49 80.83, 68.45 75.17 1.10 0
6 04/13/2013
